www.pogodaiklimat.ru
ПОГОДА в Дойлестауне
Время
и дата
23:54 04.02
00:54 05.02
01:54 05.02
02:54 05.02
03:54 05.02
04:54 05.02
05:54 05.02
06:54 05.02
07:54 05.02
08:54 05.02
09:54 05.02
10:54 05.02
11:54 05.02
12:54 05.02
13:54 05.02
14:54 05.02
15:54 05.02
16:54 05.02
17:54 05.02
18:54 05.02
19:54 05.02
20:54 05.02
21:54 05.02
22:54 05.02
23:54 05.02
00:54 06.02
01:54 06.02
02:54 06.02
03:54 06.02
04:54 06.02
05:54 06.02
06:54 06.02
07:54 06.02
08:54 06.02
09:54 06.02
10:54 06.02
11:54 06.02
12:54 06.02
13:54 06.02
14:54 06.02
15:54 06.02
16:54 06.02
17:54 06.02
18:54 06.02
19:54 06.02
20:54 06.02
21:54 06.02
22:54 06.02
Ветер
(напр.,м/с)
Видим. Явления Облачность Т
(С)
Тd
(С)
f
(%)
Тe
(С)
Тes
(С)
Комфортность P
(гПа)
Po
(гПа)
Тmin
(С)
Tmax
(С)
R
(мм)
R24
(мм)
S
(см)
ЮВ 2 16 км ясно -5.6 -13.9 52 -9 -9 1030.0 1014.1
ЮВ 2 16 км ясно -5.6 -13.3 55 -9 -9 1028.7 1013.1 -6.1 -4.4
штиль 0 16 км ясно -5.6 -12.8 57 -6 -6 1028.2 1012.4
Ю 2 16 км ясно -5.6 -11.7 62 -10 -10 1027.4 1011.8
Ю 2 16 км ясно -5.0 -10.6 65 -9 -9 1026.5 1010.8
штиль 0 16 км ясно -5.0 -10.6 65 -6 -6 1026.2 1010.4
штиль 0 16 км ясно -5.0 -10.6 65 -6 -6 1026.0 1010.4
ЮЗ 2 16 км ясно -4.4 -10.0 65 -8 -8 1025.8 1010.1 -5.6 -3.9
Ю 2 16 км ясно -2.8 -8.9 63 -6 -6 1024.9 1009.4
Ю 3 16 км ясно 0.0 -8.3 54 -4 -3 1024.4 1009.1
нст 3 16 км ясно +3.3 -7.8 44 0 +2 1024.1 1008.8
ЮЗ 3 16 км ясно +5.0 -7.8 39 +2 +6 1023.2 1007.8
нст 2 16 км ясно +7.2 -7.2 35 +6 +12 1021.6 1006.4
ЮЗ 4 16 км ясно +8.3 -7.2 33 +6 +11 1020.3 1005.1 -5.0 +8.9
Ю 4 16 км ясно +8.3 -6.7 34 +6 +10 1019.1 1004.1
ЮЗ 4 16 км ясно +8.9 -6.1 34 +7 +10 1018.4 1003.1
ЮЗ 4 16 км ясно +8.9 -6.1 34 +7 +8 1017.8 1002.8
нст 2 16 км ясно +8.3 -6.1 35 +7 +8 1017.2 1002.1
Ю 2 16 км ясно +7.8 -6.7 35 +7 +7 1016.8 1001.8
штиль 0 16 км ясно +6.7 -6.7 38 +7 +7 1016.9 1001.8 +5.6 +9.4
штиль 0 16 км ясно +3.9 -6.1 48 +4 +4 1017.0 1001.8
штиль 0 16 км ясно +3.9 -6.1 48 +4 +4 1016.6 1001.4
штиль 0 16 км ясно +2.8 -5.6 54 +2 +2 1016.6 1001.4
штиль 0 16 км 5/0 3600 m
[Ac]
+3.3 -5.6 52 +3 +3 1016.5 1001.4
штиль 0 16 км 8/0 3600 m
[Ac]
+2.8 -5.0 56 +2 +2 1015.7 1000.8
штиль 0 16 км 10/0 3000 m
[Ac]
+1.7 -5.0 61 +1 +1 1015.3 1000.4 +1.7 +6.7
штиль 0 16 км ясно +1.1 -5.6 61 +1 +1 1014.4 999.4
штиль 0 16 км ясно +0.6 -5.6 63 0 0 1013.8 999.1
штиль 0 16 км ясно -0.6 -5.6 69 -1 -1 1013.4 998.4
штиль 0 16 км ясно -0.6 -5.0 72 -1 -1 1013.4 998.4
СЗ 2 16 км ясно +2.2 -4.4 62 -1 -1 1013.8 999.1
СЗ 2 16 км 10/0 2700 m
[Ac]
+3.9 -4.4 55 +2 +2 1014.5 999.8 -1.1 +3.9
штиль 0 16 км 10/0 2850 m
[Ac]
+2.2 -3.3 67 +2 +2 1015.1 1000.1
С 3 16 км ясно +7.8 -2.8 47 +6 +6 1015.8 1000.8
С 5
{10}
16 км ясно +9.4 -2.2 44 +7 +8 1016.4 1001.4
С 7
{11}
16 км 10/0 2100 m
[Ac]
+10.6 -1.1 44 +8 +8 1017.0 1002.1
С 8
{14}
16 км 5/5 1140 м +8.9 -2.2 46 +5 +6 1017.3 1002.4
С 5
{11}
16 км 10/10 1110 м +8.3 -2.2 48 +5 +5 1017.4 1002.4 +2.2 +10.6
С 7
{11}
16 км 10/10 1080 м +7.8 -1.7 51 +4 +4 1017.6 1002.4
С 7
{11}
16 км 10/10 1020 м +7.2 -1.7 53 +3 +3 1018.0 1003.1
С 5
{9}
16 км 10/10 1050 м +7.2 -2.2 51 +4 +4 1018.5 1003.4
С 5
{12}
16 км 10/10 1050 м +6.1 -2.8 53 +2 +2 1019.7 1004.4
СЗ 5
{9}
16 км 10/10 1020 м +5.6 -2.8 55 +2 +2 1020.8 1005.8
С 5 16 км 10/10 1020 м +5.6 -2.8 55 +2 +2 1021.8 1006.8 +5.6 +8.3
СЗ 3 16 км 8/8 1020 м +4.4 -2.8 59 +1 +1 1022.8 1007.8
СЗ 4 16 км ясно +3.3 -2.8 64 -1 -1 1023.4 1008.4
СЗ 3 16 км ясно +2.2 -3.9 64 -2 -2 1024.0 1008.8
СЗ 3 16 км ясно +1.1 -4.4 67 -3 -3 1024.8 1009.8
Местоположение метеостанции Doylestown Airport: широта 40.3302 долгота -75.1229 высота над уровнем моря 120 м.
В архиве по умолчанию представлена погода в Дойлестауне за последние 1-2 суток. Обновление информации о фактической погоде в базе происходит ежечасно! Архивные данные за месяц целиком и за предыдущие месяцы Вы можете получить, выбрав интересующий диапазон дат из раскрывающегося списка и нажав кнопку "Ввод!".
Внимание! Архив погоды МЕТАР в базе сайта по станциям, не включенным в климатический монитор, хранится не более 60 дней. Нет смысла пытаться выбрать более раннюю дату.
*Определитесь, кто Вы:
Внимание! Время в таблицах - местное (без учета летнего времени). Для получения всемирного времени необходимо вычесть поправку, которая равна -5 ч.
Смотрите также архив погоды в соседних городах и на ближайших метеорологических станциях:
Партнеры нашего сайта:      
Пояснения к столбцам:
  • Ветер - указаны скорость ветра в м/с - средняя за 10 мин, порывы в срок и между сроками (в фигурных скобках) и направление, откуда дует ветер: С - северный,
  • СВ - северо-восточный, В - восточный, ЮВ - юго-восточный, Ю - южный, ЮЗ - юго-западный, З - западный, СЗ - северо-западный.
  • Видимость - горизонтальная дальность видимости в метрах или километрах. При видимости от 1 до 10 км при отсутствии осадков обычно наблюдается дымка, при ухудшении видимости до 1 км и менее - туман. В сухую погоду видимость может ухудшаться дымом, пылью или мглою.
  • Явления - указаны атмосферные явления, наблюдавшиеся в срок или в последний час перед сроком; фигурными скобками обозначены явления, наблюдавшиеся между сроками (за 1-3 часа до срока); квадратными скобками обозначены град или гололедные отложения с указанием их диаметра в мм.
  • Облачность - указаны через наклонную черту общая и нижняя облачность в баллах и высота нижней границы облаков в метрах; квадратными скобками обозначены формы облаков: Ci - перистые, Cs - перисто-слоистые, Cc - перисто-кучевые, Ac - высококучевые, As - высокослоистые, Sc - слоисто-кучевые, Ns - слоисто-дождевые, Cu - кучевые, Cb - кучево-дождевые. Подробнее классификацию облаков см. в Атласе облаков (PDF).
  • T - Температура воздуха - температура, измеренная на высоте 2 м над землей.
  • Td - Температура точки росы - температура, при понижении до которой содержащийся в воздухе водяной пар достигнет насыщения.
  • f - Относительная влажность воздуха - влажноcть воздуха, измеренная на высоте 2 м над землей.
  • Te - Эффективная температура - температура, которую ощущает одетый по сезону человек в тени. Характеристика душности погоды. При расчете учитывается влияние влажности воздуха и скорости ветра на теплоощущения человека.
  • Tes - Эффективная температура на солнце - температура, которую ощущает человек, с поправкой на солнечный нагрев. Характеристика знойности погоды. Зависит от высоты солнца над горизонтом, облачности и скорости ветра. Ночью, в пасмурную погоду, а также при ветре 12 м/с и более поправка равна нулю.
  • P - Атмосферное давление - приведенное к уровню моря атмосферное давление.
  • Po - Атмосферное давление - измеренное на уровне метеостанции атмосферное давление.
  • Tmin - Минимальная температура - минимум температуры воздуха на высоте 2 м над землей.
  • Tmax - Максимальная температура - максимум температуры воздуха на высоте 2 м над землей.
  • R - Количество осадков - Количество выпавших осадков за период времени, мм. При наведении курсора мыши на число - период времени, за который выпало указанное количество осадков.
  • R24 - Количество осадков - Количество выпавших осадков за 24 часа, мм.
  • S - Снежный покров - Высота снежного покрова, см. При наведении курсора мыши на число - состояние снежного покрова и степень покрытия местности в баллах.